Location: Casteau
(50.5142°N, 4.0161°E)
Time: 17:06:44
(UTC+00:00)

S-56A Canister/Altair - Pass Details

Date: 03 August 2021
Orbit: 632 x 2500 km, 38.9° (Epoch: 20 September)

Event Time Altitude Azimuth Distance (km) Brightness Sun altitude
Rises 18:07:12 0° 272° (W) 5,991 13.9 10.6°
Reaches altitude 10° 18:11:15 10° 266° (W) 5,091 13.4 10.0°
Maximum altitude 18:24:51 44° 202° (SSW) 3,137 10.8 7.9°
Drops below altitude 10° 18:37:13 10° 138° (SE) 4,634 11.0 6.1°
Sets 18:40:43 0° 131° (SE) 5,425 11.3 5.5°
